Domov               UVHVVR             MKGP            O straneh              
ZDRAVSTVENO VARSTVO RASTLIN
  MREŽA AGROMET. POSTAJ
 ► PROGNOSTIČNA OBVESTILA
AGROMETEOROLOŠKI PODATKI -
ARSO
OBVLADOVANJE TVEGANJ ZARADI
NEUGODNIH VREMENSKIH RAZMER
  ► NARAVNE NESREČE
  ► SUŠA/MOČA
  ► NAMAKANJE
  ► ŽLED (gozdarstvo)
KARTOGRAFSKI PRIKAZI
SPLETNE POVEZAVE
PROJEKTI IN PUBLIKACIJE

AGROMETEOROLOŠKA MREŽA: VREMENSKE POSTAJE IN FENOLOŠKA OPAZOVANJA

Pregled podatkov za lokacijo Češnjevek / Cerklje na Gorenjskem, meteorološka postaja 855696

Pregled senzorjev na lokaciji

ID Ime Zadnja
vrednost
Datum
zadnje
spremembe
Tip
senzorja
3951 Omočenost lista (U) 0 U 25.2.2018 12:30 A730WET
4185 Omočenost lista 20 cm (U) 8 U 25.2.2018 12:30 A730WET
3854 Padavine (mm) 0 mm 25.2.2018 12:30 Rain-O-Matic
3856 Relativna vlaga 2 m (% RH) 57,54 % RH 25.2.2018 12:30 50YA
3968 Relativna vlaga 20 cm (% RH) 100 % RH 25.2.2018 12:30 50YA
3855 Temperatura 2 m (°C) -5,1 °C 25.2.2018 12:30 50YA
3967 Temperatura 20 cm (°C) 0,16 °C 25.2.2018 12:30 50YA

Pregled podatkov zadnjih 24 ur

Zap.
št.
Datum in čas Češnjevek / Cerklje na Gorenjskem
Omočenost
lista
Omočenost
lista
20
cm
Padavine Relativna
vlaga
2
m
Relativna
vlaga
20
cm
Temperatura
2
m
Temperatura
20
cm
1 25.2.2018 12:30 0 8 0 57,5 100 -5,1 0,2
2 25.2.2018 12:00 0 5 0 55,2 100 -4,7 0,2
3 25.2.2018 11:30 0 4 0 52,4 100 -4,6 0,2
4 25.2.2018 11:00 1 4 0 52,2 100 -4,8 0,1
5 25.2.2018 10:30 1 4 0 54,1 100 -5,3 0,1
6 25.2.2018 10:00 6 4 0 51,5 100 -4,6 0,1
7 25.2.2018 09:30 0 5 0 65,4 100 -7,2 0
8 25.2.2018 09:00 0 6 0 66,2 100 -6,9 0
9 25.2.2018 08:30 0 7 0 75,3 100 -8 0
10 25.2.2018 08:00 0 8 0 82,8 100 -9,8 0
11 25.2.2018 07:30 0 9 0 87,4 100 -9,6 0
12 25.2.2018 07:00 0 10 0 89,9 100 -9,5 0
13 25.2.2018 06:30 0 10 0 88,4 100 -8,3 0
14 25.2.2018 06:00 0 10 0 89,9 100 -8,2 0
15 25.2.2018 05:30 0 10 0 94,8 100 -7,7 0
16 25.2.2018 05:00 0 10 0 95,8 100 -7,8 0
17 25.2.2018 04:30 0 10 0 95,8 100 -7,6 0
18 25.2.2018 04:00 0 10 0 93,5 100 -6,9 0
19 25.2.2018 03:30 0 10 0 93,1 100 -6,2 0,1
20 25.2.2018 03:00 0 10 0 90,6 100 -6 0,1
21 25.2.2018 02:30 0 10 0 88,2 100 -5,7 0,1
22 25.2.2018 02:00 0 10 0 81,7 100 -5,4 0,1
23 25.2.2018 01:30 0 10 0 80,3 100 -5,5 0,1
24 25.2.2018 01:00 0 10 0 82,2 100 -5,3 0,1
25 25.2.2018 00:30 0 10 0 82 100 -5 0,1
26 25.2.2018 00:00 0 10 0 80,5 100 -4,6 0,2
27 24.2.2018 23:30 0 10 0 79,3 100 -4,4 0,2
28 24.2.2018 23:00 0 10 0 79,8 100 -4,1 0,2
29 24.2.2018 22:30 0 10 0 79,1 100 -3,9 0,2
30 24.2.2018 22:00 0 10 0 78,1 100 -3,7 0,2
31 24.2.2018 21:30 0 10 0 78,2 100 -3,5 0,2
32 24.2.2018 21:00 0 10 0 79,3 100 -3,3 0,2
33 24.2.2018 20:30 0 10 0 79,3 100 -3 0,2
34 24.2.2018 20:00 0 10 0 81,4 100 -3 0,1
35 24.2.2018 19:30 0 10 0 81,1 100 -2,9 0,1
36 24.2.2018 19:00 0 10 0 82,2 100 -2,8 0,1
37 24.2.2018 18:30 0 10 0 86,1 100 -2,6 0,1
38 24.2.2018 18:00 0 10 0 87,6 100 -2,3 0,1
39 24.2.2018 17:30 0 10 0 86,6 100 -2 0,1
40 24.2.2018 17:00 0 10 0 85,3 100 -1,5 0,1
41 24.2.2018 16:30 0 10 0 87,8 100 -1 0,1
42 24.2.2018 16:00 0 10 0 85,5 100 -0,8 0,2
43 24.2.2018 15:30 0 10 0 85,7 100 -0,8 0,2
44 24.2.2018 15:00 0 10 0 86,7 100 -0,5 0,2
45 24.2.2018 14:30 0 10 0 86,6 100 -0,4 0,2
46 24.2.2018 14:00 0 10 0 87,6 100 -0,5 0,2
47 24.2.2018 13:30 0 10 0 88,2 100 -0,5 0,2
48 24.2.2018 13:00 0 10 0 88,1 100 -0,6 0,2
© 2011 Ministrstvo za kmetijstvo, gozdarstvo in prehrano. Vse pravice pridržane.